Regional Weather Roundup
Issued by NWS Albany, NY

Home | Current Version | Previous Version | Text Only | Print | Product List | Glossary On
Versions: 1 2 3 4 5 6 7 8 9 10 11 12 13 14 15 16 17 18 19 20 21 22 23 24 25 26 27 28 29 30 31 32 33 34 35 36 37 38 39 40 41 42 43 44 45 46 47 48 49 50
787
ASUS41 KALY 300110
RWRALY

NEW YORK STATE HOURLY WEATHER ROUNDUP
NATIONAL WEATHER SERVICE ALBANY NY
900 PM EDT FRI JUL 29 2016

NOTE: "FAIR" INDICATES FEW OR NO CLOUDS BELOW 12,000 FEET WITH NO
SIGNIFICANT WEATHER AND/OR NO OBSTRUCTIONS TO VISIBILITY.

NYZ032-033-038>043-046>054-057>066-NYZ062>081-082-084-300200-
EAST


CITY           SKY/WX    TMP DP  RH WIND       PRES   REMARKS
ALBANY         PTCLDY    76  59  55 N5        29.91R
GLENS FALLS    CLEAR     73  57  57 N6        29.94R
POUGHKEEPSIE   MOCLDY    78  70  76 CALM      29.88R
MONTGOMERY     CLEAR     73  71  93 CALM      29.90R
WHITE PLAINS   CLOUDY    76  69  79 S5        29.90R
ISLIP          LGT RAIN  75  69  81 SE3       29.89R
NEW YORK CITY  MOCLDY    80  68  66 S7        29.88R
CENTRAL PARK   CLOUDY    78  67  68 S3        29.92R
$$

NYZ005>009-017-018-044>046-055-056-300200-
CENTRAL


CITY           SKY/WX    TMP DP  RH WIND       PRES   REMARKS
FULTON         CLEAR     73  60  63 N3        29.96R
SYRACUSE       PTCLDY    74  57  55 NW6       29.95R
ROME           CLEAR     74  56  53 N8        29.95R
ELMIRA         CLOUDY    77  57  50 NE5       29.96R
BINGHAMTON     CLEAR     74  55  51 N8        29.98R
MONTICELLO     MOCLDY    73  66  78 CALM      29.98R
$$

NYZ026>034-041>043-087-300200-
NORTH


CITY           SKY/WX    TMP DP  RH WIND       PRES   REMARKS
WATERTOWN      PTCLDY    73  52  47 NE8       29.97R
FORT DRUM      NOT AVBL
MASSENA        CLEAR     69  55  60 N5        29.99R
SARANAC LAKE   CLEAR     63  55  75 N3        30.01R
PLATTSBURGH    CLEAR     71  59  65 N9        29.96R
$$

NYZ001>004-010>016-019>021-085-300200-
WEST


CITY           SKY/WX    TMP DP  RH WIND       PRES   REMARKS
NIAGARA FALLS  MOCLDY    76  60  57 NE5       29.97R
BUFFALO        MOCLDY    75  61  61 NE7       29.97S
DUNKIRK        MOCLDY    77  66  68 NE13      29.96R
JAMESTOWN      CLOUDY    70  64  83 CALM      30.01R
WELLSVILLE     CLOUDY    73  62  68 NE9       30.04R
ROCHESTER      MOCLDY    75  59  57 NE5       29.98R
PENN YAN       CLEAR     74  56  53 CALM      29.99R
$$

             KEY
       WCI = WIND CHILL INDEX
       VSB = VISIBILITY
       HX  = HEAT INDEX
$$




USA.gov is the U.S. government's official web portal to all federal, state and local government web resources and services.